Location: Asheville, NC
(35.6000°N, 82.5500°W)
Time: 09:13:50
(UTC-04:00)

XW-2D - Pass Details

Date: 10 January 2018
Orbit: 511 x 529 km, 97.5° (Epoch: 25 April)

Event Time Altitude Azimuth Distance (km) Brightness Sun altitude
Rises 18:15:17 0° 183° (S) 2,652 ? -8.2°
Reaches altitude 10° 18:17:28 10° 191° (SSW) 1,767 ? -8.6°
Maximum altitude 18:21:04 39° 261° (W) 802 ? -9.3°
Drops below altitude 10° 18:24:41 10° 332° (NNW) 1,778 ? -10.0°
Sets 18:26:54 0° 340° (NNW) 2,671 ? -10.4°
